Location: Julian California
(33.0790°N, 116.6010°W)
Time: 20:09:26
(UTC-07:00)

SPOT 1/Viking Rocket - Pass Details

Date: 14 June 2018
Orbit: 777 x 795 km, 98.6° (Epoch: 17 October)

Event Time Altitude Azimuth Distance (km) Brightness Sun altitude
Exits shadow 22:19:34 62° 131° (SE) 873 3.4 -23.6°
Maximum altitude 22:20:20 73° 75° (ENE) 812 3.4 -23.7°
Drops below altitude 10° 22:25:26 10° 352° (N) 2,328 6.8 -24.3°
Sets 22:27:45 0° 350° (N) 3,259 7.8 -24.6°
